Miscellaneous Local Product
Issued by NWS Hastings, NE

Home | Current Version | Previous Version | Text Only | Print | Product List | Glossary On
Versions: 1 2 3 4 5 6 7 8 9 10 11 12 13 14 15 16 17 18 19 20 21 22 23 24 25 26 27 28 29 30 31 32 33 34 35 36 37 38 39 40 41 42 43 44 45 46 47 48 49 50
697
AXUS43 KGID 251602
MISGRI

GID CWA HOURLY WEATHER ROUNDUP
NATIONAL WEATHER SERVICE HASTINGS NE
1100 AM CDT TUE JUL 25 2017

NOTE: "FAIR" INDICATES FEW OR NO CLOUDS BELOW 12,000 FEET WITH NO
SIGNIFICANT WEATHER AND/OR OBSTRUCTIONS TO VISIBILITY.

...SOUTH CENTRAL NEBRASKA...

CITY           SKY/WX    TMP DP  RH WIND       PRES   REMARKS
GRAND ISLAND   SUNNY     88  71  57 S17       30.00S HX  94
HASTINGS       SUNNY     87  69  54 S12       30.02S HX  91
KEARNEY        MOSUNNY   86  70  58 S17       30.00S HX  90
ORD            SUNNY     88  66  48 S18G25    29.95S HX  90
YORK           SUNNY     84  73  70 S9        30.01S HX  91
AURORA         SUNNY     85  72  63 S9        30.01S HX  91
LEXINGTON      SUNNY     84  69  60 S13       29.99F
HOLDREGE       MOSUNNY   83  68  59 S13       30.01S
HEBRON         SUNNY     88  70  56 SW13G20   30.02F HX  93

...NEBRASKA PANHANDLE...

CITY           SKY/WX    TMP DP  RH WIND       PRES   REMARKS
CHADRON        CLOUDY    85  53  33 VRB3      29.95R
ALLIANCE       MOSUNNY   87  60  40 S9        29.98R
SCOTTSBLUFF    PTSUNNY   85  54  34 VRB3      29.98S
SIDNEY         SUNNY     85  61  44 S9        30.02F

...WESTERN AND NORTH CENTRAL NEBRASKA...

CITY           SKY/WX    TMP DP  RH WIND       PRES   REMARKS
VALENTINE      CLOUDY    94  60  32 SW12G17   29.91R HX  94
AINSWORTH      SUNNY     91  64  40 SW17      29.92S HX  93
ONEILL         SUNNY     90  67  47 S17G26    29.93S HX  93
BROKEN BOW     SUNNY     90  67  46 S16G23    29.98S HX  93
IMPERIAL       SUNNY     90  62  39 S12       29.98F HX  90
NORTH PLATTE   CLOUDY    87  68  52 S9        29.97F HX  90
MCCOOK         SUNNY     91  67  44 S13       29.98F HX  94

...EASTERN NEBRASKA...

CITY           SKY/WX    TMP DP  RH WIND       PRES   REMARKS
NORFOLK        SUNNY     88  67  49 SW20      29.96S HX  91
SO SIOUX CITY  SUNNY     85  73  67 S13       29.96S HX  91
TEKAMAH        SUNNY     84  71  65 S13       29.98F
COLUMBUS       MOSUNNY   87  71  58 S13G20    29.99S HX  93
ALBION         SUNNY     90  68  48 SW20      29.97S HX  93
OMAHA EPPLEY   MOSUNNY   84  69  60 SE14      30.01S
OFFUTT AFB     SUNNY     84  70  63 SE10      30.01F
MILLARD        SUNNY     86  74  67 S9        30.01S HX  93
LINCOLN        SUNNY     88  72  58 S10       30.00F HX  94
NEBRASKA CITY  SUNNY     82  75  79 S10       30.03F
BEATRICE       SUNNY     89  73  58 S10G17    30.02F HX  96
FALLS CITY     SUNNY     85  72  65 S10       30.03F HX  91

...NORTHERN KANSAS...

CITY           SKY/WX    TMP DP  RH WIND       PRES   REMARKS
GOODLAND       SUNNY     83  67  58 S15G22    30.02S
HILL CITY      SUNNY     89  70  53 S14G24    30.02S HX  94
NORTON         SUNNY     90  61  37 S14G20    30.00
PHILLIPSBURG   SUNNY     90  66  45 S14G20    30.01S HX  92
SMITH CENTER     N/A     86  66  51 S18G26    30.02F
HAYS           SUNNY     91  68  46 S20G25    30.02F HX  95
RUSSELL        SUNNY     89  66  46 S22G28    30.02S HX  91
CONCORDIA      SUNNY     89  71  55 S14       30.03S HX  95
SALINA         SUNNY     93  69  45 S15G23    30.03F HX  98
TOPEKA         SUNNY     85  75  72 S7        30.05F HX  93



USA.gov is the U.S. government's official web portal to all federal, state and local government web resources and services.